User: anonymous   Login
Location: Unspecified
(0.0000°N, 0.0000°E)
Time: 09:20:42
(UTC+02:00)
Language:

Gbstr 26 Del rocket - Orbit

View from above orbital plane
View from above orbital plane
View from above satellite
View from above satellite

Ground track
Ground track

The orbit data is extracted from the following two-line orbital elements,

1 25876U 99041E   16211.29770906 -.00000142  00000-0  16689-4 0  9994
2 25876  51.7641 150.5564 0532809 167.0828 194.4384 14.03844094869260
Epoch (UTC): 29 July 2016 07:08:42
Eccentricity: 0.0532809
inclination: 51.7641°
perigee height: 494 km
apogee height: 1267 km
right ascension of ascending node: 150.5564°
argument of perigee: 167.0828°
revolutions per day: 14.03844094
mean anomaly at epoch: 194.4384°
orbit number at epoch: 86926

The dashed part of the orbit path shows where the satellite is in the earth's shadow,  

DLR